Weather History for OIAG - August, 2013

Change the Weather History Date:

Sunday, August 18, 2013

  Actual Average Record
Temperature  
Mean Temperature 98 °F -  
Max Temperature 113 °F - - ()
Min Temperature 82 °F - - ()
Cooling Degree Days 32    
Growing Degree Days 48 (Base 50)    
Moisture  
Dew Point 69 °F    
Average Humidity 42    
Maximum Humidity 66    
Minimum Humidity 13    
Precipitation  
Precipitation 0.00 in - - ()
Sea Level Pressure  
Sea Level Pressure 29.48 in    
Wind  
Wind Speed 6 mph ()    
Max Wind Speed 16 mph    
Max Gust Speed -    
Visibility 4.8 miles    
Events      
T = Trace of Precipitation, MM = Missing Value Source: Averaged Metar Reports

Daily Weather History Graph

Daily Weather History Graph

Search for Another Location

Airport or City:

Trip Planner

Search our weather history database for the weather conditions in past years. The results will help you decide how hot, cold, wet, or windy it might be!

Date:

Astronomy

Aug. 18, 2013 Rise Set
Actual Time 6:39 AM IRDT 7:50 PM IRDT
Civil Twilight 6:14 AM IRDT 8:15 PM IRDT
Nautical Twilight 5:44 AM IRDT 8:45 PM IRDT
Astronomical Twilight 5:13 AM IRDT 9:16 PM IRDT
Moon 5:32 PM IRDT (8/18) 3:29 AM IRDT (8/18)
Length of Visible Light 14h 01m
Length of Day
13h 11m
Waxing Gibbous, 89% of the Moon is Illuminated
Aug 18
Waxing Gibbous
Aug 21
Full
Aug 28
Last Quarter
Sep 5
New
Sep 12
First Quarter

Hourly Weather History & Observations

Time (IRDT) Temp. Heat Index Dew Point Humidity Pressure Visibility Wind Dir Wind Speed Gust Speed Precip Events Conditions
12:20 AM 87.8 °F 92.6 °F 69.8 °F 55% 29.50 in - SSE 6.9 mph - N/A   Clear
12:30 AM 87.8 °F 92.6 °F 69.8 °F 55% 29.50 in - SSE 6.9 mph - N/A   Clear
4:20 AM 84 °F - 72 °F 58% 29.52 in 6 mi Calm Calm - -  
5:20 AM 84.2 °F 89.6 °F 71.6 °F 66% 29.50 in - Calm Calm - N/A   Clear
5:30 AM 84.2 °F 89.6 °F 71.6 °F 66% 29.50 in - Calm Calm - N/A   Clear
6:30 AM 82.4 °F 86.3 °F 69.8 °F 66% 29.50 in - Calm Calm - N/A   Clear
8:30 AM 86.0 °F 93.4 °F 73.4 °F 66% 29.53 in 5.0 mi SE 6.9 mph - N/A   Partly Cloudy
9:30 AM 93.2 °F 102.4 °F 73.4 °F 52% 29.50 in 5.0 mi SE 6.9 mph - N/A   Partly Cloudy
10:30 AM 99 °F - 66 °F 25% 29.54 in 5 mi South 6.7 mph - -   Haze
11:30 AM 104.0 °F 108.9 °F 66.2 °F 29% 29.53 in - SE 11.5 mph - N/A   Clear
12:30 PM 105.8 °F 108.3 °F 62.6 °F 24% 29.53 in - Calm Calm - N/A   Clear
2:30 PM 111.2 °F 109.6 °F 53.6 °F 15% 29.47 in - NW 13.8 mph - N/A   Clear
3:30 PM 111.2 °F - 51.8 °F 14% 29.47 in - Calm Calm - N/A   Clear
4:30 PM 113 °F - 63 °F 13% 29.46 in 6 mi NW 13.4 mph - -  
5:30 PM 113.0 °F 118.1 °F 64.4 °F 21% 29.42 in - NW 16.1 mph - N/A   Clear
6:30 PM 111.2 °F 118.1 °F 66.2 °F 24% 29.42 in - WNW 16.1 mph - N/A   Clear
8:30 PM 104.0 °F 121.0 °F 77.0 °F 42% 29.42 in 4.3 mi WSW 11.5 mph - N/A   Clear
9:30 PM 100.4 °F 116.5 °F 77.0 °F 47% 29.42 in 4.3 mi SW 9.2 mph - N/A   Clear
10:30 PM 99 °F - 78 °F 41% 29.46 in 4 mi SSE 11.2 mph - -   Haze
11:30 PM 95.0 °F 109.7 °F 77.0 °F 56% 29.44 in 3.7 mi SSE 11.5 mph - N/A   Clear